Weather History for Kirksville, MO

Change the Weather History Date:

Saturday, January 12, 2013

  Actual Average Record
Temperature  
Mean Temperature 37 °F 26 °F  
Max Temperature 53 °F 35 °F 61 °F (1960)
Min Temperature 21 °F 17 °F -22 °F (1918)
Degree Days  
Heating Degree Days 28 39  
Month to date heating degree days 468  
Since 1 July heating degree days 2811  
Cooling Degree Days 0 0  
Month to date cooling degree days 0  
Year to date cooling degree days 0  
Moisture  
Dew Point 21 °F    
Average Humidity 73    
Maximum Humidity 88    
Minimum Humidity 40    
Precipitation  
Precipitation 0.02 in 0.02 in 0.75 in (1966)
Month to date precipitation 0.36  
Year to date precipitation 0.36  
Sea Level Pressure  
Sea Level Pressure 29.98 in    
Wind  
Wind Speed 12 mph (NW)    
Max Wind Speed 20 mph    
Max Gust Speed 29 mph    
Visibility 7 miles    
Events Snow    
T = Trace of Precipitation, MM = Missing Value Source: NWS Daily Summary

Daily Weather History Graph

Daily Weather History Graph

Search for Another Location

Airport:

Trip Planner

Search our weather history database for the weather conditions in past years. The results will help you decide how hot, cold, wet, or windy it might be!

Date:

Astronomy

Jan. 12, 2013 Rise Set
Actual Time 7:31 AM CST 5:06 PM CST
Civil Twilight 7:01 AM CST 5:36 PM CST
Nautical Twilight 6:27 AM CST 6:09 PM CST
Astronomical Twilight 5:55 AM CST 6:42 PM CST
Moon 7:50 AM CST (1/12) 6:35 PM CST (1/12)
Length of Visible Light 10h 34m
Length of Day
9h 34m
New Moon, 1% of the Moon is Illuminated
Jan 12
New Moon
Jan 18
First Quarter
Jan 26
Full
Feb 3
Last Quarter
Feb 10
New

Hourly Weather History & Observations

Time (CST) Temp. Windchill Dew Point Humidity Pressure Visibility Wind Dir Wind Speed Gust Speed Precip Events Conditions
12:55 AM 53.1 °F - 44.1 °F 71% 29.71 in 10.0 mi SSW 15.0 mph 20.7 mph N/A   Clear
1:55 AM 51.8 °F - 42.8 °F 71% 29.73 in 10.0 mi SW 11.5 mph - N/A   Clear
2:55 AM 51.1 °F - 28.9 °F 43% 29.78 in 8.0 mi West 19.6 mph 28.8 mph N/A   Partly Cloudy
3:09 AM 50.0 °F - 26.6 °F 40% 29.78 in 7.0 mi West 13.8 mph 24.2 mph N/A   Mostly Cloudy
3:55 AM 43.0 °F 34.8 °F 32.0 °F 65% 29.83 in 7.0 mi West 18.4 mph 28.8 mph N/A   Overcast
4:24 AM 37.4 °F 28.2 °F 32.0 °F 81% 29.84 in 10.0 mi West 16.1 mph 27.6 mph N/A   Scattered Clouds
4:55 AM 36.0 °F 27.1 °F 32.0 °F 86% 29.88 in 10.0 mi WNW 13.8 mph 23.0 mph N/A   Clear
5:55 AM 33.1 °F 22.6 °F 28.0 °F 82% 29.94 in 10.0 mi WNW 16.1 mph 24.2 mph N/A   Clear
6:55 AM 30.9 °F 21.7 °F 25.0 °F 79% 29.98 in 10.0 mi West 11.5 mph 18.4 mph N/A   Clear
7:55 AM 28.0 °F 17.5 °F 16.0 °F 61% 30.02 in 10.0 mi WNW 12.7 mph 19.6 mph N/A   Clear
8:55 AM 27.0 °F 16.7 °F 15.1 °F 61% 30.05 in 10.0 mi NW 11.5 mph 21.9 mph N/A   Clear
9:55 AM 28.9 °F 20.4 °F 15.1 °F 56% 30.05 in 10.0 mi NW 9.2 mph - N/A   Clear
10:55 AM 28.9 °F 22.8 °F 15.1 °F 56% 30.08 in 10.0 mi NW 5.8 mph - N/A   Clear
11:55 AM 30.0 °F 25.2 °F 16.0 °F 56% 30.05 in 10.0 mi NW 4.6 mph - N/A   Partly Cloudy
12:55 PM 30.0 °F 23.2 °F 16.0 °F 56% 30.01 in 10.0 mi NW 6.9 mph - N/A   Overcast
1:55 PM 30.9 °F 24.3 °F 16.0 °F 54% 30.05 in 10.0 mi WNW 6.9 mph - N/A   Overcast
2:55 PM 30.9 °F 23.5 °F 17.1 °F 57% 30.04 in 10.0 mi WNW 8.1 mph - N/A   Overcast
3:55 PM 30.0 °F 21.7 °F 17.1 °F 59% 30.01 in 10.0 mi North 9.2 mph - N/A   Overcast
4:55 PM 28.9 °F 21.1 °F 17.1 °F 61% 30.02 in 10.0 mi NNW 8.1 mph - N/A   Overcast
5:55 PM 28.0 °F 20.0 °F 18.0 °F 66% 30.09 in 9.0 mi NW 8.1 mph - 0.00 in   Overcast
6:42 PM 26.6 °F 16.8 °F 15.8 °F 64% 30.03 in 8.0 mi NW 10.4 mph - 0.00 in Snow Light Snow
6:51 PM 26.6 °F 15.2 °F 17.6 °F 69% 30.02 in 1.8 mi NW 13.8 mph - 0.00 in Snow Light Snow
6:55 PM 26.1 °F 16.8 °F 19.0 °F 75% 30.07 in 1.2 mi NW 9.2 mph - 0.00 in Snow Light Snow
7:25 PM 24.8 °F 15.3 °F 21.2 °F 86% 29.99 in 2.0 mi NNW 9.2 mph - 0.00 in Snow Light Snow
7:44 PM 24.8 °F 13.4 °F 21.2 °F 86% 29.98 in 1.8 mi NNW 12.7 mph - 0.01 in Snow Light Snow
7:51 PM 24.8 °F 14.0 °F 21.2 °F 86% 29.99 in 2.5 mi NNW 11.5 mph - 0.01 in Snow Light Snow
7:55 PM 24.1 °F 12.5 °F 21.0 °F 88% 30.03 in 3.0 mi NNW 12.7 mph - 0.01 in Snow Light Snow
8:08 PM 24.8 °F 13.4 °F 21.2 °F 86% 29.99 in 6.0 mi NNW 12.7 mph 23.0 mph 0.00 in Snow Light Snow
8:16 PM 24.8 °F 11.9 °F 19.4 °F 80% 29.98 in 7.0 mi NNW 16.1 mph 24.2 mph 0.00 in Snow Light Snow
8:27 PM 23.0 °F 11.7 °F 19.4 °F 86% 30.00 in 9.0 mi NNW 11.5 mph 25.3 mph 0.00 in   Overcast
8:36 PM 23.0 °F 11.1 °F 19.4 °F 86% 29.99 in 10.0 mi NNW 12.7 mph 20.7 mph 0.00 in   Overcast
8:55 PM 23.0 °F 11.7 °F 17.1 °F 78% 30.04 in 10.0 mi North 11.5 mph 18.4 mph 0.00 in   Overcast
9:38 PM 23.0 °F 13.1 °F 17.6 °F 80% 30.01 in 2.0 mi NNW 9.2 mph - 0.00 in Snow Light Snow
9:46 PM 21.2 °F 10.9 °F 17.6 °F 86% 30.02 in 1.2 mi NNW 9.2 mph - 0.00 in Snow Light Snow
9:55 PM 21.9 °F 13.4 °F 18.0 °F 85% 30.07 in 1.5 mi NNW 6.9 mph - 0.00 in Snow Light Snow
10:04 PM 21.2 °F 11.7 °F 17.6 °F 86% 30.02 in 2.5 mi NNW 8.1 mph - 0.01 in Snow Light Snow
10:15 PM 21.2 °F 11.7 °F 17.6 °F 86% 30.02 in 1.8 mi NNW 8.1 mph - N/A Snow Light Snow
10:24 PM 21.2 °F 9.5 °F 17.6 °F 86% 30.00 in 2.0 mi North 11.5 mph - 0.01 in Snow Light Snow
10:32 PM 21.2 °F 9.5 °F 17.6 °F 86% 30.01 in 3.0 mi North 11.5 mph - 0.01 in Snow Light Snow
10:55 PM 21.9 °F 10.4 °F 18.0 °F 85% 30.04 in 6.0 mi North 11.5 mph - 0.01 in Snow Light Snow
11:55 PM 21.9 °F 9.8 °F 14.0 °F 72% 30.05 in 10.0 mi NW 12.7 mph - 0.00 in   Overcast